Zurück zum Katalog

COSMOS 886 DEB

AktivLEO
NORAD 9826·DEBRIS·🇷🇺 Russia

Gestartet Dec 27, 1976 von Baikonur Cosmodrome

Loading…

Nächste Überflüge (nächste 24 Stunden)

TLE

AktuellSource: Space-Track

Epoche: Sep 14, 2026, 10:25 UTC

1 09826U 76126AN  26257.43424893  .00001672  00000-0  48687-3 0  9998
2 09826  65.8392  58.8751 0741643 250.3709 101.5886 13.48634106374419

Verfolge COSMOS 886 DEB in Echtzeit mit AllMySat

Download on the App Store